Regional Weather Roundup
Issued by NWS Green Bay, WI

Home | Current Version | Previous Version | Graphics & Text | Print | Product List | Glossary Off
Versions: 1 2 3 4 5 6 7 8 9 10 11 12 13 14 15 16 17 18 19 20 21 22 23 24 25 26 27 28 29 30 31 32 33 34 35 36 37 38 39 40 41 42 43 44 45 46 47 48 49 50

000
ASUS43 KGRB 280710
RWRGRB

NORTH-CENTRAL AND NORTHEAST WISCONSIN REGIONAL WEATHER ROUNDUP
NATIONAL WEATHER SERVICE GREEN BAY WI
100 AM CST SAT FEB 28 2015

WIZ005-009-010>012-018-019-280800-
NORTH CENTRAL WISCONSIN

CITY           SKY/WX    TMP DP  RH WIND       PRES   REMARKS
IRONWOOD       CLEAR      7  -2  66 SW10      30.41S WCI  -8
MANITOWISH WTR CLEAR     -7 -13  76 CALM      30.42S
ARBOR VITAE    CLEAR     -5 -11  75 CALM      30.43S
EAGLE RIVER    CLEAR     -3  -9  75 CALM      30.42S
LAND O LAKES   CLEAR    -15 -20  77 CALM      30.42R
RHINELANDER    CLEAR     -4 -10  75 SW6       30.44R WCI -16
PHILLIPS       CLEAR     -6 -10  82 CALM      30.46R
ANTIGO         CLEAR     -4  -8  79 W5        30.47S WCI -14
TOMAHAWK       CLEAR    -12 -16  81 CALM      30.47S
MERRILL        CLEAR    -12 -17  79 CALM      30.49S
$$

WIZ013-073-280800-
NORTHEAST WISCONSIN

CITY           SKY/WX    TMP DP  RH WIND       PRES   REMARKS
IRON MOUNTAIN  CLEAR     -2 -10  69 CALM      30.45R
MARINETTE      CLEAR      7  -6  56 W5        30.54R WCI  -2
OCONTO         CLEAR      2  -7  66 SW5       30.56S WCI  -7
$$

WIZ017-030-035>037-045-280800-
CENTRAL WISCONSIN

CITY           SKY/WX    TMP DP  RH WIND       PRES   REMARKS
MEDFORD        PTCLDY    -1  -6  78 SW5       30.48R WCI -11
WAUSAU         CLEAR      2  -7  66 CALM      30.50S
MOSINEE        CLEAR      0  -8  71 SW7       30.52S WCI -13
MARSHFIELD     PTCLDY    -2  -9  72 SW6       30.52R WCI -14
WISC RAPIDS    CLEAR      0  -9  65 SW6       30.57R WCI -12
STEVENS POINT  CLEAR      2  -8  62 SW7       30.55R WCI -11
WAUPACA        CLEAR      5  -6  60 W6        30.58S WCI  -6
SHAWANO        CLEAR      6  -5  59 CALM      30.56S
CLINTONVILLE   CLEAR      5  -6  61 W5        30.56R WCI  -4
$$

WIZ038-039-048-051-280800-
FOX VALLEY

CITY           SKY/WX    TMP DP  RH WIND       PRES   REMARKS
NWS GREEN BAY  CLEAR      6  -4  63 SW6       30.58R WCI  -4
APPLETON       CLEAR      5  -6  61 SW8       30.56S WCI  -8
OSHKOSH        CLEAR      4  -5  66 SW3       30.58S
FOND DU LAC    CLEAR      3  -6  66 SW7       30.60R WCI  -9
$$

WIZ022-050-052-280800-
EAST CENTRAL WISCONSIN

CITY           SKY/WX    TMP DP  RH WIND       PRES   REMARKS
STURGEON BAY   CLEAR      7  -6  56 SW6       30.57R WCI  -3
MANITOWOC      CLEAR      7  -2  66 W12       30.59R WCI  -8
SHEBOYGAN      CLEAR      4  -6  63 W10       30.59S WCI -11
$$

LMZ563-521-522-541>543-280800-
LAKESHORE

STATION/POSITION TIME  TEMP    WIND        PRES    VSBY  WAVE
                       AIR SEA DIR/SP/G                  HT/PER
                 (UTC) (F)     (DEG/KT/KT) (MB)    (MI)  (FT/S)
SHEBOYGAN LKSHOR 0700    8     260/ 12/ 13 1038.0R
KEWAUNEE LKSHORE 0600          250/  7/ 12   N/A
NORTHPORT PIER   0700   10     260/  4/ 13 1033.9S
SISTER BAY LKSHO 0700    9     250/ 11/ 13   N/A
CHAMBERS ISLAND  0700    8     200/  7/ 11 1034.2R
MENOMINEE LKSHOR 0700    8     210/  7     1034.9R
$$



USA.gov is the U.S. government's official web portal to all federal, state and local government web resources and services.